Weather Data

Pearl Creek Farm: 8878 N Farm Road 75, Walnut Grove MO 65770

<== Previous Day (Monday 21 Jan 2013) | Next Day (Wednesday 23 Jan 2013) ==>

Summary Precipitation Data For Tuesday 22 January 2013

ElementValueUnits
Precipitation0"
NotesYesterday, I was up on our hillside and noticed small patches of ice in pockets that never (or rarely) see the sun. Still not significant amounts, but it does show that it has been very cold here for many days and even the brief warmup was not enough to completely eliminate the ice.
SourcePearl Creek Farm

Summary Temperature Data For Tuesday 22 January 2013

ElementValueUnits
High Temperature36 oF
Low Temperature21 oF
Average Temperature27 oF
High Humidity82 %
Low Humidity54 %
Average Humidity68 %
SourcePearl Creek Farm

Detail Temperature Data For Tuesday 22 January 2013

Date / TimeTemp (F)RH (%)Dew Pt (F)Report Date / TimeSource
2013-01-22 00:00:00 24 72 16.2 2013-01-27 10:51:56 Pearl Creek Farm
2013-01-22 00:30:00 24 71 15.8 2013-01-27 10:51:56 Pearl Creek Farm
2013-01-22 01:00:00 24 70 15.7 2013-01-27 10:51:56 Pearl Creek Farm
2013-01-22 01:30:00 24 70 15.5 2013-01-27 10:51:56 Pearl Creek Farm
2013-01-22 02:00:00 24 71 16.0 2013-01-27 10:51:56 Pearl Creek Farm
2013-01-22 02:30:00 24 72 16.3 2013-01-27 10:51:56 Pearl Creek Farm
2013-01-22 03:00:00 24 72 16.3 2013-01-27 10:51:56 Pearl Creek Farm
2013-01-22 03:30:00 24 73 16.5 2013-01-27 10:51:56 Pearl Creek Farm
2013-01-22 04:00:00 24 71 15.8 2013-01-27 10:51:56 Pearl Creek Farm
2013-01-22 04:30:00 24 70 15.7 2013-01-27 10:51:56 Pearl Creek Farm
2013-01-22 05:00:00 24 70 15.7 2013-01-27 10:51:56 Pearl Creek Farm
2013-01-22 05:30:00 23 67 13.7 2013-01-27 10:51:56 Pearl Creek Farm
2013-01-22 06:00:00 22 67 12.6 2013-01-27 10:51:56 Pearl Creek Farm
2013-01-22 06:30:00 22 66 12.4 2013-01-27 10:51:56 Pearl Creek Farm
2013-01-22 07:00:00 22 69 13.4 2013-01-27 10:51:56 Pearl Creek Farm
2013-01-22 07:30:00 21 71 13.0 2013-01-27 10:51:56 Pearl Creek Farm
2013-01-22 08:00:00 21 73 13.7 2013-01-27 10:51:56 Pearl Creek Farm
2013-01-22 08:30:00 22 71 13.9 2013-01-27 10:51:56 Pearl Creek Farm
2013-01-22 09:00:00 23 68 14.1 2013-01-27 10:51:56 Pearl Creek Farm
2013-01-22 09:30:00 25 67 15.5 2013-01-27 10:51:56 Pearl Creek Farm
2013-01-22 10:00:00 27 64 16.5 2013-01-27 10:51:56 Pearl Creek Farm
2013-01-22 10:30:00 29 62 17.5 2013-01-27 10:51:56 Pearl Creek Farm
2013-01-22 11:00:00 30 59 17.3 2013-01-27 10:51:56 Pearl Creek Farm
2013-01-22 11:30:00 31 59 18.4 2013-01-27 10:51:56 Pearl Creek Farm
2013-01-22 12:00:00 32 58 18.7 2013-01-27 10:51:56 Pearl Creek Farm
2013-01-22 12:30:00 33 57 19.5 2013-01-27 10:51:56 Pearl Creek Farm
2013-01-22 13:00:00 33 56 19.1 2013-01-27 10:51:56 Pearl Creek Farm
2013-01-22 13:30:00 34 56 19.8 2013-01-27 10:51:56 Pearl Creek Farm
2013-01-22 14:00:00 35 54 19.9 2013-01-27 10:51:56 Pearl Creek Farm
2013-01-22 14:30:00 36 55 21.2 2013-01-27 10:51:56 Pearl Creek Farm
2013-01-22 15:00:00 36 55 21.4 2013-01-27 10:51:56 Pearl Creek Farm
2013-01-22 15:30:00 36 54 21.0 2013-01-27 10:51:56 Pearl Creek Farm
2013-01-22 16:00:00 36 55 21.2 2013-01-27 10:51:56 Pearl Creek Farm
2013-01-22 16:30:00 36 56 21.9 2013-01-27 10:51:56 Pearl Creek Farm
2013-01-22 17:00:00 35 57 21.1 2013-01-27 10:51:56 Pearl Creek Farm
2013-01-22 17:30:00 33 62 21.3 2013-01-27 10:51:56 Pearl Creek Farm
2013-01-22 18:00:00 31 68 21.5 2013-01-27 10:51:56 Pearl Creek Farm
2013-01-22 18:30:00 29 70 20.5 2013-01-27 10:51:56 Pearl Creek Farm
2013-01-22 19:00:00 27 75 20.0 2013-01-27 10:51:56 Pearl Creek Farm
2013-01-22 19:30:00 26 76 19.3 2013-01-27 10:51:56 Pearl Creek Farm
2013-01-22 20:00:00 25 76 18.5 2013-01-27 10:51:56 Pearl Creek Farm
2013-01-22 20:30:00 25 79 19.3 2013-01-27 10:51:56 Pearl Creek Farm
2013-01-22 21:00:00 24 79 18.5 2013-01-27 10:51:56 Pearl Creek Farm
2013-01-22 21:30:00 23 80 17.8 2013-01-27 10:51:56 Pearl Creek Farm
2013-01-22 22:00:00 22 80 16.7 2013-01-27 10:51:56 Pearl Creek Farm
2013-01-22 22:30:00 22 81 17.1 2013-01-27 10:51:56 Pearl Creek Farm
2013-01-22 23:00:00 21 81 16.1 2013-01-27 10:51:56 Pearl Creek Farm
2013-01-22 23:30:00 21 82 16.3 2013-01-27 10:51:56 Pearl Creek Farm

A total of 48 rows are displayed.